DELTA 1 DEB

Satellite information

Favourite Embed

Satellite Type and Status

DEBRISIN ORBIT

Key statistics

Satellite DELTA 1 DEB at a glance.

Uptime

18935

Days in orbit

Revolutions

≈ 11.5

Per day

Orbit

MEO

Medium Earth Orbit

Inclination

102.7

Latest

Satellite identification and parameters

Extended collection of information and parameters for DELTA 1 DEB.

Object identification

Identified? True

Debris? True

Object name: DELTA 1 DEB

International designator: 1973-086FC

Object number (NORAD): 7194

Object ID (CCSDS): 7194

Country: UNITED STATES OF AMERICA (US)

Current information (Y/N): Y

RCS size: SMALL

Orbital parameters

Period: 125.227 minutes

Inclination: 102.7033 deg

SMA: 8291.343 km

Apoapsis: 2360.19 km

Periapsis: 1466.226 km

RAAN: 325.0593 deg

Eccentricy: 0.05390949

Argument of periapsis: 225.9522 deg

Mean anomaly: 320.3438 deg

Mean motion: 11.49914281 rev/day

Mean motion (dot): 0.00000398 rev/day2

B* drag term: 0.0069602124 1/REarth

Two-line elements (TLE)

Creation date: Sept. 8, 2025, 9:49 a.m.

Reference frame: TEME

Reference center: EARTH

Epoch: Sept. 8, 2025, 12:07 a.m. UTC

TLE line 0: 0 DELTA 1 DEB

TLE line 1: 1 07194U 73086FC 25251.00534422 .00000398 00000-0 69602-2 0 9995

TLE line 2: 2 07194 102.7033 325.0593 0539095 225.9522 320.3438 11.49914281171422

Live tracking on map

Real-time ground track for satellite DELTA 1 DEB.

In-orbit conjunctions

A list of the most updated potential collisions computed for object DELTA 1 DEB.

Target Orbit TCA Probability of collision Miss distance Type
COSMOS 736 LEO 2025-04-12 13:41:45 0.0003651173 356.0 (m) PAYLOAD

Associated space launch

Meteorological satellite using radiometric imaging

DELTA 1 DEB was lifted into orbit during the mission ‘Delta 0300 | NOAA 3’, on board a Delta 0300 space rocket.

The launch took place on Nov. 6, 1973, 5:02 p.m. from Space Launch Complex 2W.

For more information about the launch, click the button.

Launch to space Delta 0300 | NOAA 3
Delta 0300 | NOAA 3

Agency: N/A

Status: Launch Successful

Launch date: Nov. 6, 1973, 5:02 p.m. UTC

Rocket: Delta 0300

Launch pad: Space Launch Complex 2W

Location: Vandenberg SFB, CA, USA

...

Latest news about this satellite

There are no fresh news available about this satellite. Check back as we update our databases every day.


Newsletter sign-up

Weekly statistics, charts and insights to help you stay on top of the space industry.